IBE525 LEMD-LEPA

Flight info

Callsign IBE525
Flight time 1h 3m
Altitude 30000
Route NANDO T257 FENXE/N0424F320 T257 LASPO/N0379F260 M871 GODOX
Aircraft A21N/M-SDE2E3FGHIRWXY/LB1

Departure

Time 2026-05-03 21:30
Airport Adolfo Suárez Madrid–Barajas Airport (LEMD)

Arrival

Time 2026-05-03 22:34
Airport Palma de Mallorca Airport (LEPA)
Time Latitude Longitude Altitude Speed Heading
2026-05-03 21:06 40.48762 -3.58948 2033 ft 0 kts 271°
2026-05-03 21:19 40.48762 -3.58947 2025 ft 2 kts 271°
2026-05-03 21:19 40.48763 -3.58914 2029 ft 4 kts 263°
2026-05-03 21:20 40.48763 -3.58880 2033 ft 4 kts 285°
2026-05-03 21:20 40.48757 -3.58846 2031 ft 4 kts 285°
2026-05-03 21:20 40.48751 -3.58824 2041 ft 0 kts 292°
2026-05-03 21:23 40.48753 -3.58825 2035 ft 1 kts 315°
2026-05-03 21:23 40.48760 -3.58824 2033 ft 1 kts 18°
2026-05-03 21:23 40.48764 -3.58778 2031 ft 10 kts 101°
2026-05-03 21:23 40.48762 -3.58677 2028 ft 7 kts 78°
2026-05-03 21:24 40.48775 -3.58646 2030 ft 0 kts 49°
2026-05-03 21:24 40.48775 -3.58642 2030 ft 1 kts 77°
2026-05-03 21:24 40.48760 -3.58558 2024 ft 20 kts 94°
2026-05-03 21:24 40.48760 -3.58313 2015 ft 33 kts 90°
2026-05-03 21:25 40.48768 -3.58088 2004 ft 17 kts 66°
2026-05-03 21:25 40.48854 -3.58050 2004 ft 14 kts 359°
2026-05-03 21:25 40.48956 -3.58051 2006 ft 15 kts 360°
2026-05-03 21:25 40.49030 -3.58052 2006 ft 16 kts 359°
2026-05-03 21:26 40.49183 -3.58052 2006 ft 8 kts
2026-05-03 21:26 40.49239 -3.58024 2003 ft 10 kts 56°
2026-05-03 21:26 40.49240 -3.57968 2001 ft 9 kts 105°
2026-05-03 21:26 40.49210 -3.57932 2002 ft 10 kts 160°
2026-05-03 21:27 40.49171 -3.57825 1998 ft 14 kts 88°
2026-05-03 21:27 40.49171 -3.57730 1995 ft 17 kts 90°
2026-05-03 21:27 40.49171 -3.57657 1993 ft 6 kts 89°
2026-05-03 21:27 40.49180 -3.57599 1992 ft 0 kts 64°
2026-05-03 21:28 40.49187 -3.57581 1991 ft 9 kts 64°
2026-05-03 21:28 40.49224 -3.57486 1988 ft 3 kts 50°
2026-05-03 21:28 40.49287 -3.57451 1986 ft 14 kts
2026-05-03 21:29 40.49304 -3.57451 1986 ft 0 kts
2026-05-03 21:29 40.49306 -3.57451 1986 ft 5 kts
2026-05-03 21:29 40.49579 -3.57454 1988 ft 69 kts 360°
2026-05-03 21:29 40.50248 -3.57460 1992 ft 124 kts 359°
2026-05-03 21:30 40.51281 -3.57466 2032 ft 169 kts 357°
2026-05-03 21:30 40.52463 -3.57516 2527 ft 167 kts 355°
2026-05-03 21:30 40.53616 -3.57586 3093 ft 174 kts 357°
2026-05-03 21:30 40.54912 -3.57481 3606 ft 198 kts
2026-05-03 21:31 40.56323 -3.57085 3968 ft 226 kts 12°
2026-05-03 21:31 40.57956 -3.56487 4580 ft 245 kts 15°
2026-05-03 21:31 40.59606 -3.55839 5525 ft 249 kts 15°
2026-05-03 21:31 40.61277 -3.55187 6520 ft 252 kts 14°
2026-05-03 21:32 40.62991 -3.54537 7329 ft 264 kts 12°
2026-05-03 21:32 40.64889 -3.54143 7959 ft 281 kts
2026-05-03 21:32 40.66854 -3.53944 8802 ft 291 kts
2026-05-03 21:32 40.68899 -3.53692 9679 ft 304 kts
2026-05-03 21:33 40.70910 -3.52531 10128 ft 333 kts 38°
2026-05-03 21:33 40.72482 -3.50172 10689 ft 352 kts 56°
2026-05-03 21:33 40.73834 -3.47434 11541 ft 361 kts 58°
2026-05-03 21:33 40.75198 -3.44623 12507 ft 366 kts 59°
2026-05-03 21:34 40.76306 -3.41544 13088 ft 380 kts 78°
2026-05-03 21:34 40.76472 -3.38070 13775 ft 382 kts 102°
2026-05-03 21:34 40.75621 -3.34794 14508 ft 377 kts 125°
2026-05-03 21:34 40.74013 -3.32096 15243 ft 374 kts 137°
2026-05-03 21:35 40.72261 -3.29588 15685 ft 376 kts 137°
2026-05-03 21:35 40.70326 -3.27267 16252 ft 375 kts 152°
2026-05-03 21:35 40.68007 -3.25748 16895 ft 373 kts 162°
2026-05-03 21:35 40.65577 -3.24511 17549 ft 376 kts 163°
2026-05-03 21:36 40.63117 -3.23285 18179 ft 380 kts 163°
2026-05-03 21:36 40.60635 -3.22025 18737 ft 384 kts 163°
2026-05-03 21:36 40.58139 -3.20737 19294 ft 387 kts 163°
2026-05-03 21:36 40.55624 -3.19426 19859 ft 390 kts 163°
2026-05-03 21:37 40.53102 -3.18106 20409 ft 392 kts 163°
2026-05-03 21:37 40.50583 -3.16783 20958 ft 394 kts 163°
2026-05-03 21:37 40.48000 -3.15426 21519 ft 397 kts 163°
2026-05-03 21:37 40.45426 -3.14074 22078 ft 400 kts 163°
2026-05-03 21:38 40.42835 -3.12711 22581 ft 403 kts 163°
2026-05-03 21:38 40.40303 -3.11075 23115 ft 412 kts 154°
2026-05-03 21:38 40.37976 -3.08799 23598 ft 421 kts 146°
2026-05-03 21:38 40.35743 -3.06282 23985 ft 425 kts 145°
2026-05-03 21:39 40.33510 -3.03711 24353 ft 428 kts 145°
2026-05-03 21:39 40.31274 -3.01140 24728 ft 431 kts 145°
2026-05-03 21:39 40.29000 -2.98538 25111 ft 433 kts 145°
2026-05-03 21:39 40.26719 -2.95936 25479 ft 436 kts 145°
2026-05-03 21:40 40.24424 -2.93326 25837 ft 438 kts 145°
2026-05-03 21:40 40.22114 -2.90703 26188 ft 441 kts 145°
2026-05-03 21:40 40.19787 -2.88065 26516 ft 444 kts 146°
2026-05-03 21:40 40.17448 -2.85417 26844 ft 446 kts 146°
2026-05-03 21:41 40.15144 -2.82663 27169 ft 454 kts 139°
2026-05-03 21:41 40.13238 -2.79302 27424 ft 470 kts 123°
2026-05-03 21:41 40.11994 -2.75297 27771 ft 480 kts 111°
2026-05-03 21:41 40.11067 -2.71088 28080 ft 484 kts 108°
2026-05-03 21:42 40.10206 -2.66866 28739 ft 476 kts 108°
2026-05-03 21:42 40.09345 -2.62738 29504 ft 467 kts 109°
2026-05-03 21:42 40.08464 -2.58645 29955 ft 457 kts 109°
2026-05-03 21:42 40.07589 -2.54692 30050 ft 449 kts 110°
2026-05-03 21:43 40.05853 -2.47034 30056 ft 438 kts 110°
2026-05-03 21:43 40.04126 -2.39503 30072 ft 433 kts 111°
2026-05-03 21:44 40.02361 -2.31828 30069 ft 450 kts 110°
2026-05-03 21:44 40.00538 -2.23876 30066 ft 465 kts 113°
2026-05-03 21:45 39.98445 -2.15758 30077 ft 476 kts 119°
2026-05-03 21:45 39.95105 -2.08237 30080 ft 478 kts 127°
2026-05-03 21:46 39.91799 -2.00826 30076 ft 469 kts 125°
2026-05-03 21:46 39.88661 -1.93414 30085 ft 468 kts 125°
2026-05-03 21:47 39.85472 -1.85873 30089 ft 480 kts 125°
2026-05-03 21:47 39.82243 -1.78276 30092 ft 480 kts 125°
2026-05-03 21:48 39.79002 -1.70685 30235 ft 481 kts 125°
2026-05-03 21:48 39.77368 -1.66874 30445 ft 483 kts 125°
2026-05-03 21:48 39.75732 -1.63063 30736 ft 483 kts 125°
2026-05-03 21:49 39.74099 -1.59259 31083 ft 482 kts 125°
2026-05-03 21:49 39.72455 -1.55435 31409 ft 481 kts 125°
2026-05-03 21:49 39.70844 -1.51695 31687 ft 480 kts 125°
2026-05-03 21:49 39.69179 -1.47835 31994 ft 480 kts 125°
2026-05-03 21:50 39.65914 -1.40282 32083 ft 478 kts 125°
2026-05-03 21:50 39.62660 -1.32769 32082 ft 477 kts 125°
2026-05-03 21:51 39.59401 -1.25268 32080 ft 477 kts 125°
2026-05-03 21:51 39.56146 -1.17794 32077 ft 477 kts 126°
2026-05-03 21:52 39.52876 -1.10306 32082 ft 478 kts 126°
2026-05-03 21:52 39.49590 -1.02804 32089 ft 479 kts 126°
2026-05-03 21:53 39.46298 -0.95304 32089 ft 479 kts 126°
2026-05-03 21:53 39.43004 -0.87804 32097 ft 479 kts 126°
2026-05-03 21:54 39.39714 -0.80310 32097 ft 479 kts 126°
2026-05-03 21:54 39.38074 -0.76587 31785 ft 475 kts 126°
2026-05-03 21:54 39.36415 -0.72832 31070 ft 474 kts 126°
2026-05-03 21:55 39.34781 -0.69141 30420 ft 472 kts 126°
2026-05-03 21:55 39.33158 -0.65478 29836 ft 468 kts 126°
2026-05-03 21:55 39.31548 -0.61849 29206 ft 464 kts 126°
2026-05-03 21:55 39.30110 -0.58113 28590 ft 466 kts 117°
2026-05-03 21:56 39.29114 -0.54132 28011 ft 468 kts 107°
2026-05-03 21:56 39.28663 -0.49970 27452 ft 470 kts 95°
2026-05-03 21:56 39.28664 -0.45754 26884 ft 468 kts 91°
2026-05-03 21:56 39.28816 -0.41582 26388 ft 464 kts 89°
2026-05-03 21:57 39.29045 -0.37444 26121 ft 461 kts 88°
2026-05-03 21:57 39.29299 -0.33320 26079 ft 462 kts 88°
2026-05-03 21:57 39.29554 -0.29187 26076 ft 462 kts 88°
2026-05-03 21:57 39.29798 -0.25053 26074 ft 462 kts 89°
2026-05-03 21:58 39.30029 -0.20912 26076 ft 462 kts 89°
2026-05-03 21:58 39.30250 -0.16778 26074 ft 462 kts 89°
2026-05-03 21:58 39.30396 -0.13981 26074 ft 462 kts 89°
2026-05-03 21:58 39.30603 -0.09903 26078 ft 462 kts 89°
2026-05-03 21:59 39.30814 -0.05709 26077 ft 462 kts 89°
2026-05-03 21:59 39.31017 -0.01625 26081 ft 462 kts 89°
2026-05-03 21:59 39.31224 0.02569 26070 ft 462 kts 89°
2026-05-03 21:59 39.31428 0.06709 26078 ft 462 kts 89°
2026-05-03 22:00 39.31631 0.10841 26078 ft 462 kts 89°
2026-05-03 22:00 39.31833 0.14994 26079 ft 462 kts 89°
2026-05-03 22:00 39.32035 0.19178 26079 ft 462 kts 89°
2026-05-03 22:00 39.32234 0.23320 26078 ft 462 kts 89°
2026-05-03 22:01 39.32433 0.27476 26075 ft 462 kts 89°
2026-05-03 22:01 39.32633 0.31712 26081 ft 462 kts 89°
2026-05-03 22:01 39.32825 0.35791 26080 ft 462 kts 89°
2026-05-03 22:01 39.33020 0.39993 26074 ft 462 kts 89°
2026-05-03 22:02 39.33211 0.44131 26078 ft 462 kts 89°
2026-05-03 22:02 39.33400 0.48275 26078 ft 462 kts 89°
2026-05-03 22:02 39.33588 0.52413 26081 ft 462 kts 89°
2026-05-03 22:02 39.33775 0.56560 26077 ft 462 kts 89°
2026-05-03 22:03 39.33960 0.60696 26078 ft 462 kts 89°
2026-05-03 22:03 39.34144 0.64839 26086 ft 462 kts 89°
2026-05-03 22:03 39.34326 0.68972 26083 ft 462 kts 89°
2026-05-03 22:03 39.34507 0.73122 26086 ft 462 kts 89°
2026-05-03 22:04 39.34688 0.77305 25810 ft 458 kts 89°
2026-05-03 22:04 39.34865 0.81405 25307 ft 456 kts 89°
2026-05-03 22:04 39.35039 0.85490 24878 ft 454 kts 89°
2026-05-03 22:04 39.35211 0.89548 24429 ft 451 kts 89°
2026-05-03 22:05 39.35380 0.93576 24002 ft 448 kts 89°
2026-05-03 22:05 39.35546 0.97581 23557 ft 444 kts 89°
2026-05-03 22:05 39.35711 1.01555 23039 ft 441 kts 89°
2026-05-03 22:05 39.35872 1.05489 22538 ft 438 kts 89°
2026-05-03 22:06 39.36032 1.09458 22020 ft 434 kts 89°
2026-05-03 22:06 39.36186 1.13290 21465 ft 432 kts 89°
2026-05-03 22:06 39.36341 1.17200 20870 ft 429 kts 89°
2026-05-03 22:06 39.36492 1.21019 20292 ft 421 kts 89°
2026-05-03 22:07 39.36640 1.24764 19724 ft 415 kts 89°
2026-05-03 22:07 39.36790 1.28477 19178 ft 414 kts 86°
2026-05-03 22:07 39.36985 1.32176 18640 ft 412 kts 85°
2026-05-03 22:07 39.37174 1.35846 18111 ft 409 kts 86°
2026-05-03 22:08 39.37354 1.39509 17602 ft 406 kts 84°
2026-05-03 22:08 39.37700 1.43105 17042 ft 401 kts 77°
2026-05-03 22:08 39.38213 1.46632 16422 ft 398 kts 75°
2026-05-03 22:08 39.38748 1.50131 15825 ft 395 kts 80°
2026-05-03 22:09 39.39154 1.53625 15300 ft 390 kts 83°
2026-05-03 22:09 39.39521 1.57100 14686 ft 383 kts 83°
2026-05-03 22:09 39.39906 1.60496 14049 ft 380 kts 82°
2026-05-03 22:10 39.40730 1.67228 12817 ft 373 kts 82°
2026-05-03 22:10 39.41149 1.70521 12231 ft 368 kts 82°
2026-05-03 22:10 39.41563 1.73757 11683 ft 362 kts 82°
2026-05-03 22:10 39.41974 1.76944 11145 ft 358 kts 82°
2026-05-03 22:11 39.42381 1.80105 10616 ft 353 kts 82°
2026-05-03 22:11 39.42775 1.83166 10097 ft 349 kts 82°
2026-05-03 22:11 39.43173 1.86250 9649 ft 333 kts 83°
2026-05-03 22:11 39.43542 1.89112 9324 ft 312 kts 83°
2026-05-03 22:12 39.43890 1.91813 8941 ft 298 kts 83°
2026-05-03 22:12 39.44222 1.94415 8626 ft 290 kts 83°
2026-05-03 22:12 39.44548 1.96977 8259 ft 286 kts 83°
2026-05-03 22:12 39.44869 1.99501 7874 ft 283 kts 83°
2026-05-03 22:13 39.45203 2.02006 7486 ft 281 kts 80°
2026-05-03 22:13 39.45727 2.04435 7106 ft 279 kts 74°
2026-05-03 22:13 39.46351 2.06842 6970 ft 278 kts 74°
2026-05-03 22:13 39.46981 2.09215 6957 ft 279 kts 73°
2026-05-03 22:14 39.47612 2.11593 6957 ft 279 kts 73°
2026-05-03 22:14 39.48239 2.13965 6966 ft 279 kts 73°
2026-05-03 22:14 39.48835 2.16363 6959 ft 278 kts 80°
2026-05-03 22:14 39.49212 2.18882 6958 ft 277 kts 83°
2026-05-03 22:15 39.49531 2.21343 6850 ft 277 kts 83°
2026-05-03 22:15 39.49859 2.23796 6718 ft 276 kts 82°
2026-05-03 22:15 39.50211 2.26302 6605 ft 276 kts 78°
2026-05-03 22:15 39.50671 2.27826 6523 ft 276 kts 59°
2026-05-03 22:16 39.51757 2.29961 6359 ft 276 kts 62°
2026-05-03 22:16 39.52649 2.32161 6195 ft 275 kts 65°
2026-05-03 22:16 39.53432 2.34414 6033 ft 274 kts 68°
2026-05-03 22:16 39.54134 2.36689 5843 ft 269 kts 72°
2026-05-03 22:17 39.54519 2.38992 5627 ft 256 kts 93°
2026-05-03 22:17 39.54101 2.41140 5458 ft 243 kts 118°
2026-05-03 22:17 39.53212 2.43036 5242 ft 242 kts 125°
2026-05-03 22:17 39.52249 2.44820 5037 ft 242 kts 127°
2026-05-03 22:18 39.51278 2.46587 4858 ft 238 kts 126°
2026-05-03 22:18 39.50350 2.48283 4662 ft 224 kts 126°
2026-05-03 22:18 39.49443 2.49942 4418 ft 216 kts 128°
2026-05-03 22:18 39.48571 2.51505 4145 ft 213 kts 127°
2026-05-03 22:19 39.47810 2.53145 3853 ft 212 kts 110°
2026-05-03 22:19 39.47728 2.55014 3576 ft 207 kts 83°
2026-05-03 22:19 39.48070 2.56795 3290 ft 198 kts 71°
2026-05-03 22:19 39.48701 2.58326 2921 ft 194 kts 60°
2026-05-03 22:20 39.49417 2.59801 2449 ft 187 kts 63°
2026-05-03 22:20 39.50088 2.61162 2167 ft 171 kts 59°
2026-05-03 22:20 39.50746 2.62366 1861 ft 157 kts 59°
2026-05-03 22:20 39.51274 2.63558 1527 ft 146 kts 69°
2026-05-03 22:21 39.51724 2.64692 1207 ft 139 kts 60°
2026-05-03 22:21 39.52231 2.65723 885 ft 132 kts 62°
2026-05-03 22:21 39.52713 2.66742 591 ft 138 kts 61°
2026-05-03 22:21 39.53204 2.67833 454 ft 137 kts 60°
2026-05-03 22:22 39.53694 2.68865 349 ft 134 kts 57°
2026-05-03 22:22 39.54156 2.69858 216 ft 132 kts 60°
2026-05-03 22:22 39.54655 2.70926 83 ft 133 kts 60°
2026-05-03 22:22 39.55108 2.71902 46 ft 124 kts 60°
2026-05-03 22:23 39.55616 2.73000 453 ft 153 kts 59°
2026-05-03 22:23 39.56253 2.74197 1092 ft 157 kts 45°
2026-05-03 22:23 39.57155 2.74841 1019 ft 143 kts 15°
2026-05-03 22:23 39.58289 2.75029 1308 ft 174 kts
2026-05-03 22:24 39.59598 2.74816 1851 ft 201 kts 337°
2026-05-03 22:24 39.60849 2.73807 2390 ft 222 kts 323°
2026-05-03 22:24 39.62132 2.72544 2961 ft 241 kts 321°
2026-05-03 22:24 39.63401 2.71070 3628 ft 255 kts 306°
2026-05-03 22:25 39.64276 2.69162 3979 ft 242 kts 294°
2026-05-03 22:25 39.64986 2.67168 3974 ft 244 kts 292°
2026-05-03 22:25 39.65552 2.65093 3966 ft 245 kts 279°
2026-05-03 22:25 39.65718 2.62876 3965 ft 243 kts 264°
2026-05-03 22:26 39.65441 2.60734 3964 ft 241 kts 254°
2026-05-03 22:26 39.65018 2.58599 3967 ft 241 kts 250°
2026-05-03 22:26 39.64610 2.56493 3968 ft 242 kts 251°
2026-05-03 22:26 39.64187 2.54469 3956 ft 227 kts 243°
2026-05-03 22:27 39.63513 2.52662 3964 ft 214 kts 236°
2026-05-03 22:27 39.62806 2.50964 3984 ft 213 kts 236°
2026-05-03 22:27 39.62287 2.49861 3904 ft 210 kts 225°
2026-05-03 22:27 39.61105 2.48864 3785 ft 199 kts 188°
2026-05-03 22:28 39.59800 2.49031 3628 ft 184 kts 153°
2026-05-03 22:28 39.58750 2.49918 3476 ft 179 kts 132°
2026-05-03 22:28 39.57916 2.51082 3373 ft 175 kts 139°
2026-05-03 22:28 39.56914 2.51910 3279 ft 173 kts 149°
2026-05-03 22:29 39.55846 2.52612 3172 ft 168 kts 150°
2026-05-03 22:29 39.54802 2.53271 3086 ft 167 kts 150°
2026-05-03 22:29 39.53757 2.53914 2973 ft 166 kts 151°
2026-05-03 22:29 39.52716 2.54544 2960 ft 162 kts 151°
2026-05-03 22:30 39.51689 2.55165 2937 ft 156 kts 148°
2026-05-03 22:30 39.50868 2.56036 2766 ft 152 kts 129°
2026-05-03 22:30 39.50169 2.57091 2591 ft 153 kts 126°
2026-05-03 22:30 39.49663 2.58295 2407 ft 148 kts 99°
2026-05-03 22:31 39.49794 2.59568 2178 ft 147 kts 69°
2026-05-03 22:31 39.50260 2.60770 1975 ft 148 kts 63°
2026-05-03 22:31 39.50718 2.61947 1767 ft 144 kts 68°
2026-05-03 22:31 39.51042 2.63135 1542 ft 135 kts 78°
2026-05-03 22:32 39.51514 2.64167 1205 ft 136 kts 53°
2026-05-03 22:32 39.52018 2.65193 819 ft 132 kts 65°
2026-05-03 22:32 39.52458 2.66261 686 ft 138 kts 61°
2026-05-03 22:32 39.52962 2.67337 475 ft 137 kts 59°
2026-05-03 22:33 39.53464 2.68389 354 ft 138 kts 58°
2026-05-03 22:33 39.53950 2.69431 283 ft 136 kts 58°
2026-05-03 22:33 39.54449 2.70492 121 ft 136 kts 61°
2026-05-03 22:33 39.54936 2.71520 43 ft 125 kts 62°
2026-05-03 22:34 39.55309 2.72317 41 ft 70 kts 58°
2026-05-03 22:34 39.55452 2.72627 41 ft 10 kts 65°
2026-05-03 22:34 39.55478 2.72712 41 ft 10 kts 71°
2026-05-03 22:34 39.55489 2.72794 41 ft 9 kts 84°
2026-05-03 22:35 39.55496 2.72890 41 ft 12 kts 86°
2026-05-03 22:35 39.55499 2.73063 41 ft 27 kts 88°
2026-05-03 22:35 39.55549 2.73280 41 ft 19 kts 59°
2026-05-03 22:35 39.55617 2.73422 41 ft 18 kts 58°
2026-05-03 22:36 39.55591 2.73523 41 ft 9 kts 148°
2026-05-03 22:36 39.55535 2.73567 41 ft 10 kts 149°
2026-05-03 22:36 39.55435 2.73646 40 ft 25 kts 148°
2026-05-03 22:36 39.55311 2.73743 41 ft 20 kts 149°
2026-05-03 22:37 39.55227 2.73811 41 ft 12 kts 147°
2026-05-03 22:37 39.55184 2.73819 41 ft 2 kts 220°
2026-05-03 22:37 39.55175 2.73802 41 ft 5 kts 236°
2026-05-03 22:37 39.55146 2.73778 41 ft 5 kts 186°
2026-05-03 22:38 39.55115 2.73789 41 ft 4 kts 169°
2026-05-03 22:38 39.55094 2.73777 41 ft 4 kts 224°
2026-05-03 22:38 39.55070 2.73725 41 ft 7 kts 239°
2026-05-03 22:38 39.55067 2.73719 41 ft 2 kts 239°
2026-05-03 22:39 39.55063 2.73710 41 ft 1 kts 239°
2026-05-03 22:39 39.55059 2.73702 41 ft 1 kts 239°
2026-05-03 22:39 39.55054 2.73690 41 ft 1 kts 239°
2026-05-03 22:39 39.55053 2.73689 41 ft 0 kts 239°